User: anonymous   Login
Location: Unspecified
(0.0000°N, 0.0000°E)
Time: 01:32:00
(UTC+00:00)
Language:

A-11 Canister half - Orbit

View from above orbital plane
View from above orbital plane
View from above satellite
View from above satellite

Ground track
Ground track

The orbit data is extracted from the following two-line orbital elements,

1    53U 60009E   15245.95863330 -.00000084 +00000-0 +00000-0 0  9990
2    53 047.2753 253.8060 0100020 310.9315 048.2848 12.17177053455470
Epoch (UTC): 02 September 2015 23:00:25
Eccentricity: 0.0100020
inclination: 47.2753°
perigee height: 1525 km
apogee height: 1685 km
right ascension of ascending node: 253.8060°
argument of perigee: 310.9315°
revolutions per day: 12.17177053
mean anomaly at epoch: 48.2848°
orbit number at epoch: 45547

The dashed part of the orbit path shows where the satellite is in the earth's shadow,  

DLR